Tatalina, AK

3:32 AM AKDT on March 24, 2017 (GMT -0800)
Tatalina

Weather History for PATL - May, 2014

Change the Weather History Date:

Sunday, May 4, 2014

  Actual Average Record
Temperature  
Mean Temperature 43 °F -  
Max Temperature 50 °F 44 °F 69 °F (2004)
Min Temperature 36 °F 30 °F 24 °F (2013)
Degree Days  
Heating Degree Days 22    
Moisture  
Dew Point 27 °F    
Average Humidity 58    
Maximum Humidity 82    
Minimum Humidity 40    
Precipitation  
Precipitation 0.00 in - - ()
Sea Level Pressure  
Sea Level Pressure 30.04 in    
Wind  
Wind Speed 5 mph (WNW)    
Max Wind Speed 12 mph    
Max Gust Speed 17 mph    
Visibility 10 miles    
Events Rain    
Averages and records for this station are not official NWS values.
T = Trace of Precipitation, MM = Missing Value Source: NWS Daily Summary

Daily Weather History Graph

Daily Weather History Graph

Search for Another Location

Airport or City:

Trip Planner

Search our weather history database for the weather conditions in past years. The results will help you decide how hot, cold, wet, or windy it might be!

Date:

Astronomy

May. 04, 2014 Rise Set
Actual Time 5:54 AM AKDT 10:48 PM AKDT
Civil Twilight 4:48 AM AKDT 11:56 PM AKDT
Nautical Twilight 2:53 AM AKDT 1:48 AM AKDT
Astronomical Twilight Sun does not rise Sun does not rise
Moon 10:24 AM AKDT (5/4) 3:07 AM AKDT (5/4)
Length of Visible Light 19h 08m
Length of Day
16h 54m
Waxing Crescent, 29% of the Moon is Illuminated
May 4
Waxing Crescent
May 6
First Quarter
May 14
Full
May 21
Last Quarter
May 28
New

Hourly Weather History & Observations

Time (AKDT) Temp. Windchill Dew Point Humidity Pressure Visibility Wind Dir Wind Speed Gust Speed Precip Events Conditions
12:55 AM 50.0 °F - 26.6 °F 40% 29.97 in 10.0 mi West 3.5 mph - N/A   Scattered Clouds
1:55 AM 49.6 °F - 27.1 °F 42% 29.98 in 10.0 mi SW 3.5 mph - N/A   Mostly Cloudy
2:55 AM 48.7 °F - 27.3 °F 43% 29.98 in 10.0 mi West 4.6 mph - N/A   Mostly Cloudy
3:55 AM 46.6 °F - 27.7 °F 48% 29.98 in 10.0 mi WSW 4.6 mph - N/A   Mostly Cloudy
4:55 AM 45.1 °F 42.8 °F 28.8 °F 53% 29.99 in 10.0 mi WNW 4.6 mph - N/A   Mostly Cloudy
5:55 AM 43.5 °F 40.9 °F 29.7 °F 58% 29.99 in 10.0 mi West 4.6 mph - N/A   Mostly Cloudy
6:55 AM 41.2 °F 37.3 °F 30.6 °F 66% 30.00 in 10.0 mi WSW 5.8 mph - N/A   Mostly Cloudy
7:55 AM 39.2 °F 32.0 °F 33.3 °F 79% 30.01 in 10.0 mi West 11.5 mph 17.3 mph N/A   Mostly Cloudy
8:55 AM 39.0 °F 34.0 °F 34.0 °F 82% 30.03 in 10.0 mi Variable 6.9 mph - N/A   Mostly Cloudy
9:26 AM 39.2 °F 35.0 °F 33.8 °F 81% 30.04 in 10.0 mi WNW 5.8 mph 15.0 mph N/A Rain Light Rain Showers
9:55 AM 38.1 °F 32.9 °F 32.0 °F 79% 30.06 in 10.0 mi Variable 6.9 mph - N/A   Mostly Cloudy
10:55 AM 37.8 °F 31.8 °F 31.1 °F 77% 30.06 in 10.0 mi NW 8.1 mph 16.1 mph N/A   Mostly Cloudy
11:55 AM 36.9 °F 30.7 °F 28.4 °F 71% 30.08 in 10.0 mi NW 8.1 mph 13.8 mph N/A   Overcast
12:55 PM 37.4 °F 32.1 °F 26.4 °F 65% 30.09 in 10.0 mi Variable 6.9 mph - N/A   Mostly Cloudy
1:26 PM 37.4 °F 32.1 °F 26.6 °F 65% 30.08 in 10.0 mi Variable 6.9 mph - N/A   Mostly Cloudy
1:55 PM 38.1 °F 32.9 °F 26.1 °F 62% 30.09 in 10.0 mi WNW 6.9 mph 15.0 mph N/A   Overcast
2:55 PM 38.5 °F 32.1 °F 25.7 °F 60% 30.08 in 10.0 mi NNW 9.2 mph - N/A   Overcast
3:55 PM 40.3 °F 36.3 °F 25.2 °F 55% 30.07 in 10.0 mi West 5.8 mph - N/A   Overcast
4:55 PM 40.6 °F 37.5 °F 24.3 °F 52% 30.07 in 10.0 mi Variable 4.6 mph - N/A   Overcast
5:55 PM 41.0 °F 37.1 °F 22.5 °F 48% 30.07 in 10.0 mi North 5.8 mph - N/A   Overcast
6:55 PM 41.4 °F 39.4 °F 22.6 °F 47% 30.06 in 10.0 mi North 3.5 mph - N/A   Overcast
7:55 PM 42.3 °F 39.4 °F 21.9 °F 44% 30.05 in 10.0 mi ENE 4.6 mph - N/A   Overcast
8:55 PM 41.7 °F - 22.5 °F 46% 30.05 in 10.0 mi East 2.3 mph - N/A   Overcast
9:55 PM 41.4 °F - 21.9 °F 46% 30.05 in 10.0 mi Variable 2.3 mph - N/A   Overcast
10:55 PM 39.9 °F 36.7 °F 20.1 °F 45% 30.05 in 10.0 mi North 4.6 mph - N/A   Mostly Cloudy
11:55 PM 37.2 °F - 20.7 °F 51% 30.06 in 10.0 mi Variable 2.3 mph - N/A   Mostly Cloudy